Tracking 29030 objects as of 25-Jun-2024
HD Live streaming from Space Station
objects crossing your sky now

ARIANE 44LP DEB

Track ARIANE 44LP DEB now!


NORAD ID: 33546
Int'l Code: 1988-109V
Perigee: 750.0 km
Apogee: 35,952.0 km
Inclination: 6.6 °
Period: 644.7 minutes
Semi major axis: 24721 km
RCS: 0.0126 m2 (small)
Launch date: December 11, 1988
Source: France (FR)
Launch site: FRENCH GUIANA (FRGUI)

Note: This is SATELLITE DEBRIS
Your satellite tracking list
Your tracking list is empty




NASA's NSSDC Master Catalog

Two Line Element Set (TLE):
1 33546U 88109V   24176.38276212 -.00000088  00000-0 -19497-2 0  9998
2 33546   6.6061 141.8756 7119588 253.6258 245.8571  2.23345673  5286
Source of the keplerian elements: AFSPC